sat.trackr.live / text

‹ back to catalog

ONEWEB-0165

NORAD 48233 · 2021-031Z

PAYLOAD ACTIVE UNKNOWN

§ Identity

Operator
Country
UK
Launch date
2021-04-25
Launch site
VOSTO
Launch vehicle
Mass (kg)
RCS (m²)

Purposes: comms

External: N2YO · Heavens-Above · Gunter

§ Orbital elements

Epoch: 2026-09-19T23:14:13.210944Z

Period
109.55 min
Inclination
87.8902°
Eccentricity
0.0001526
Mean motion
13.14501793 rev/d
Perigee alt
1,204.6 km
Apogee alt
1,207.0 km
Semi-major
7,583.9 km
B*
-2.0073e-4
RAAN
270.8078°
Arg perigee
84.2438°
Mean anomaly
275.8866°
Rev number
26,081

§ Raw data

ONEWEB-01651 48233U 21031Z   26262.96820846 -.00000062  00000+0 -20073-3 0  99922 48233  87.8902 270.8078 0001526  84.2438 275.8866 13.14501793260814

JSON: /api/v1/satellites/48233 · /tle

For live sub-satellite position, see the globe view (requires WebGL).

§ Visibility from observer

Set your observer location to see the next 7 days of passes ≥ 10°. The values pass through the URL so the page stays shareable.

No JS? Fill the form by hand. The geolocation button needs JavaScript.